Regional Weather Roundup
Issued by NWS

Home | Current Version | Previous Version | Graphics & Text | Print | Product List | Glossary On
Versions: 1 2 3 4 5 6 7 8 9 10 11 12 13 14 15 16 17 18 19 20 21 22 23 24 25 26 27 28 29 30 31 32 33 34 35 36 37 38 39 40 41 42 43 44 45 46 47 48 49 50
000
ASUS43 KFSD 301910
RWRSD

WEATHER ROUNDUP FOR SOUTH DAKOTA
NATIONAL WEATHER SERVICE SIOUX FALLS SD
100 PM CST FRI JAN 30 2015

NOTE: "FAIR" INDICATES FEW OR NO CLOUDS BELOW 12,000 FEET WITH NO
SIGNIFICANT WEATHER AND/OR OBSTRUCTIONS TO VISIBILITY.


SDZ001>005-009-010-012>017-302000-
NORTHWEST AND NORTH CENTRAL SOUTH DAKOTA

CITY           SKY/WX    TMP DP  RH WIND       PRES   REMARKS
BUFFALO          N/A     48  25  40 NW12      30.10F
FAITH            N/A     48  25  40 NW12      30.14F
MOBRIDGE       SUNNY     37  26  64 S6        30.14F
$$

SDZ012>016-024>037-041>051-057-063-072>074-302000-
SOUTHWEST AND SOUTH CENTRAL SOUTH DAKOTA

CITY           SKY/WX    TMP DP  RH WIND       PRES   REMARKS
RAPID CTY ARPT MOSUNNY   51  24  34 N12       30.15F
PIERRE         SUNNY     42  24  49 SW6       30.16F
CUSTER           N/A    N/A N/A N/A MISG      30.14F
ELLSWORTH AFB  MOSUNNY   49  26  40 N16       30.15F
PHILIP         MOSUNNY   46  25  43 NW8       30.15F
PINE RIDGE     MOSUNNY   47  24  40 W10       30.14F
WINNER         FAIR      52  25  35 SW16      30.16F
$$

SDZ004>011-016>023-039-040-302000-
NORTHEAST SOUTH DAKOTA

CITY           SKY/WX    TMP DP  RH WIND       PRES   REMARKS
ABERDEEN       SUNNY     34  25  69 S18       30.20F WCI  23
WATERTOWN      SUNNY     33  25  72 S20G25    30.21F WCI  21
SISSETON         N/A     34  26  72 S17       30.20F WCI  23
$$

SDZ017-020-022-023-036>040-048>070-302000-
SOUTHEAST SOUTH DAKOTA

CITY           SKY/WX    TMP DP  RH WIND       PRES   REMARKS
SIOUX FALLS    MOSUNNY   33  24  69 S16       30.31F WCI  23
HURON          SUNNY     37  27  67 S15G21    30.21F
CHAMBERLAIN    SUNNY     46  28  48 SW15      30.18F
MITCHELL       SUNNY     38  28  67 S15       30.25F
YANKTON        SUNNY     37  27  65 S15       30.31F
$$

ABBREVIATIONS USED IN REMARKS
   TC - TEMPERATURE IN CELSIUS
  WCI - WIND CHILL INDEX
   HX - HEAT INDEX
  VSB - VISIBILITY




USA.gov is the U.S. government's official web portal to all federal, state and local government web resources and services.